Weather in Murmansk

Russia / Murmansk Oblast     68°58′14″N   33°04′29″E
temp.,
°C
wind,
m/s
gust,
m/s
humid.,
%
clouds,
%
prec.,
mm/h
press.,
hPa
HPBL,
m
4 december, sat
sat400:00−13ssw119899 0.0 101810
03:00−14sw119844 0.0 10199
06:00−16ssw119842 0.0 102012
09:00−16sw119851 0.0 102111
12:00−17sw119829 0.0 102213
15:00−17sw119731 0.0 102311
18:00−18sw21978 0.0 102414
21:00−18sw22979 0.0 102520
5 december, sun
sun500:00−18sw22977 0.0 102523
03:00−18sw22977 0.0 102630
06:00−18sw239846 0.0 102636
09:00−19ssw33977 0.0 102644
12:00−18sw34967 0.0 102660
15:00−16sw5178910 0.0 1025384
18:00−15wsw718845 0.0 1025442
21:00−15wsw819805 0.0 1024466
6 december, mon
mon600:00−14wsw820835 0.0 1024487
03:00−14wsw820835 0.0 1024508
06:00−14sw9208329 0.0 1023507
09:00−14wsw819835 0.0 1022485
12:00−15wsw818815 0.0 1022436
15:00−15wsw8188190 0.0 1022419
18:00−15wsw8178397 0.0 1022407
21:00−15wsw6158498 0.0 1022395
7 december, tue
tue700:00−16wsw51584100 0.0 1023383
03:00−17sw5148568 0.0 1024360
06:00−17sw4138666 0.0 1024346
09:00−18sw411915 0.0 1025227
12:00−20sw36955 0.0 1025127
15:00−20sw34945 0.0 102662
18:00−20ssw33945 0.0 102656
21:00−20ssw33935 0.0 102645
8 december, wed
wed800:00−20ssw33935 0.0 102740
03:00−20ssw33945 0.0 102637
06:00−20sw22955 0.0 102630
09:00−19sw22965 0.0 102529
12:00−20sw22985 0.0 102525
15:00−19sw229912 0.0 102526
18:00−19sw229933 0.0 102527
21:00−20sw229917 0.0 102526